Location: Ç?ral? Körfezi
(36.3984°N, 30.4829°E)
Time: 10:07:52
(UTC+00:00)

Meteor 2-13 Rocket - Pass Details

Date: 04 August 2024
Orbit: 935 x 958 km, 82.5° (Epoch: 14 September)

Event Time Altitude Azimuth Distance (km) Brightness Sun altitude
Rises 17:53:51 0° 356° (N) 3,643 8.0 -10.5°
Reaches altitude 10° 17:56:23 10° 360° (N) 2,691 7.2 -10.9°
Maximum altitude 18:02:30 64° 81° (E) 1,051 4.5 -12.0°
Drops below altitude 10° 18:08:32 10° 163° (SSE) 2,662 6.3 -13.0°
Enters shadow 18:08:56 - 163° (SSE) 2,812 6.5 -13.0°
